Dewpoint
47 55 54 56 57 56 57 61 63 64 65 66 68 67 67 69 71 72 73 74 74 75 75 75 75 75 74 74 75 75 75 75 76 75 74 73 73 72 74 74 74 75 74 74 74 74 75 75 74 74 76 76 76 76 78 78 78 77 78 78 78 77 76
44 47 56 57 57 57 58 63 64 63 63 66 68 69 68 69 71 72 73 74 75 75 75 75 75 75 75 75 75 75 75 75 76 75 74 74 74 74 73 75 76 76 76 75 75 76 76 75 75 74 75 76 76 76 76 77 78 78 77 78 77 78 77
43 40 55 55 55 56 61 62 63 62 66 63 67 67 67 70 71 73 74 74 75 75 75 75 75 75 75 75 75 75 75 75 75 75 73 72 73 70 73 74 76 76 76 76 76 76 75 75 75 76 75 75 74 76 76 77 78 77 77 78 77 76 77
46 42 47 57 60 61 60 61 63 64 64 66 67 67 68 71 71 73 74 74 75 75 75 75 74 74 75 75 75 75 75 75 75 73 72 72 72 71 72 73 75 75 76 75 73 74 73 74 75 75 76 75 75 76 76 76 76 77 77 78 77 76 77
47 44 42 55 56 58 59 61 62 64 62 64 66 70 69 70 70 71 73 74 74 75 75 74 73 75 75 75 74 74 75 75 75 73 73 72 73 72 71 70 72 73 74 75 75 74 76 75 74 75 75 76 75 76 76 76 76 77 77 77 77 76 76
46 45 47 54 54 56 58 60 61 62 61 62 65 68 67 67 67 68 71 74 74 74 75 75 74 75 75 75 74 75 75 75 75 75 73 73 74 72 71 71 71 72 71 74 74 74 74 76 74 75 74 74 74 74 75 76 75 76 77 77 76 75 74
45 45 47 55 56 58 57 53 55 60 58 63 66 68 67 66 67 67 69 73 73 74 74 73 74 74 75 75 75 75 75 74 75 74 74 73 73 73 73 73 72 72 72 74 74 74 73 74 75 75 75 73 74 73 75 76 75 75 76 77 76 76 75
46 46 47 48 48 50 53 58 61 63 65 64 62 66 67 66 66 66 68 71 72 73 73 73 73 74 75 75 74 73 74 73 74 74 73 73 72 72 72 73 73 73 74 73 74 74 73 73 73 75 76 75 75 75 76 76 76 75 76 76 76 76 75
46 48 44 42 45 43 51 59 61 61 65 67 64 66 67 66 65 66 68 69 71 72 72 72 72 73 75 75 74 73 74 74 74 73 73 71 70 69 69 72 73 73 74 72 72 74 73 73 72 74 76 76 76 76 76 76 76 75 75 76 76 76 74
50 49 48 45 45 44 54 56 60 64 64 65 67 69 68 67 67 67 67 68 69 70 71 71 71 72 73 74 73 72 73 74 74 72 70 70 71 70 68 70 71 73 73 72 71 72 74 74 74 75 76 76 77 77 76 76 76 75 75 76 76 76 75
50 52 50 47 53 54 59 61 63 65 64 68 69 67 69 69 68 66 67 67 68 69 70 70 71 71 72 72 71 71 72 71 72 72 72 71 69 70 69 70 71 72 71 71 71 72 73 74 75 76 76 76 76 77 77 76 76 75 74 75 76 76 75
53 52 52 52 56 56 57 61 63 65 67 69 68 66 70 70 68 67 67 67 67 68 69 70 70 70 71 72 71 71 72 72 70 70 72 70 69 69 69 70 69 71 72 72 71 72 72 74 75 76 76 76 76 77 77 76 76 76 75 74 74 75 75
57 56 54 53 58 58 63 65 65 64 66 68 66 65 67 68 67 67 69 69 67 67 68 70 69 70 70 71 70 71 71 71 70 71 71 71 70 69 70 70 68 69 72 72 71 71 70 73 75 75 76 77 76 76 77 77 76 76 76 75 74 75 75
58 50 54 59 62 65 62 66 67 68 69 67 66 66 65 66 67 68 70 68 68 66 66 67 69 70 71 72 72 72 70 71 72 72 72 72 72 72 71 70 70 71 72 74 73 72 71 72 74 75 75 76 76 76 77 77 76 76 77 76 75 75 75
43 44 50 51 62 63 69 65 71 72 71 69 66 66 65 65 66 69 70 69 69 66 66 68 70 70 70 72 73 73 72 73 73 73 73 73 73 73 72 71 72 72 72 74 74 73 72 71 73 75 75 75 76 76 76 76 76 76 76 76 76 75 74
37 42 46 52 59 58 67 70 74 73 73 72 67 68 64 66 68 68 67 67 66 68 67 69 70 71 69 71 73 74 74 74 74 74 73 73 74 73 73 72 72 72 72 74 75 74 74 73 71 73 74 75 76 76 76 75 75 72 67 70 75 75 74
33 39 44 51 63 61 68 70 72 74 75 74 72 70 68 67 68 66 64 64 64 68 67 67 71 70 70 71 73 74 75 75 75 75 74 74 74 74 74 73 73 73 73 73 74 75 75 74 72 70 72 74 74 75 76 75 74 67 65 66 68 73 74
37 50 48 51 55 63 66 66 69 71 71 69 68 71 69 71 68 64 63 64 64 64 64 66 69 69 71 71 74 76 76 75 76 76 75 75 75 75 75 73 73 73 73 73 73 75 75 74 74 73 72 74 74 75 76 76 69 65 65 65 66 68 74
36 36 44 57 58 62 58 60 62 70 65 64 66 66 65 69 64 67 66 67 67 66 64 63 63 70 72 71 74 76 76 76 76 76 76 76 75 75 75 75 74 73 73 72 73 74 75 75 74 74 73 73 75 74 75 76 68 64 63 64 65 65 69
33 33 36 39 47 56 65 67 65 65 61 68 67 61 62 65 65 68 66 65 69 67 67 67 66 69 73 73 74 76 76 76 76 76 77 77 76 76 76 75 74 73 73 73 74 74 74 74 75 74 74 74 75 76 75 75 68 63 62 63 63 64 67
44 45 47 52 55 65 70 71 70 69 66 54 53 66 67 64 62 66 65 66 66 68 72 71 70 70 74 73 74 76 77 77 76 76 77 77 77 76 76 76 75 75 74 73 73 73 74 74 74 75 74 74 73 75 75 74 67 62 61 62 62 63 64
33 34 43 61 68 70 70 64 65 58 67 70 62 54 51 60 61 59 60 62 64 66 70 73 72 70 75 74 74 75 76 77 77 77 77 77 77 76 76 76 76 76 75 74 72 73 73 75 74 74 75 75 74 73 74 74 64 61 60 60 61 62 68
61 62 62 63 61 65 71 71 71 71 71 69 67 61 56 52 53 59 59 60 61 69 69 70 73 71 73 75 73 74 76 76 76 77 77 78 77 77 76 76 77 77 76 74 73 73 72 73 72 74 74 75 75 74 73 73 67 60 59 59 59 62 70
61 62 60 61 65 67 70 70 68 66 65 65 64 64 65 63 64 72 73 65 65 66 67 69 70 72 72 74 74 74 76 77 77 77 77 78 78 77 76 76 77 76 76 74 73 71 71 72 72 73 73 73 74 73 73 73 69 58 57 58 58 63 71
61 61 60 62 66 65 65 68 69 69 71 70 70 72 70 71 72 73 73 74 66 67 67 67 69 71 71 73 75 75 76 76 77 77 77 78 78 77 77 76 77 77 77 74 74 72 73 73 73 73 73 72 73 69 73 73 69 58 57 57 57 62 72
62 62 60 61 64 64 67 70 70 71 68 70 73 73 74 72 73 74 75 75 68 63 66 68 69 72 72 73 75 75 76 76 77 78 78 78 78 78 77 77 76 76 76 75 73 73 72 72 73 73 73 73 73 73 73 73 74 68 55 56 56 58 71
62 63 61 60 61 70 67 66 70 70 69 73 74 71 71 72 71 74 75 75 74 69 65 69 72 73 74 74 73 74 76 76 77 78 78 78 78 77 76 76 76 75 76 74 73 73 74 72 72 72 73 73 74 73 74 74 74 73 55 55 55 56 62
63 63 63 62 67 67 66 66 70 70 70 72 71 72 74 75 74 75 75 74 73 73 71 78 73 74 75 75 73 73 75 75 77 78 78 79 79 79 78 77 77 76 76 74 75 75 75 75 73 72 72 73 74 75 75 73 68 74 58 55 54 55 56
63 63 63 64 64 66 64 66 69 68 71 70 70 70 73 74 75 72 73 73 73 73 75 77 76 75 76 76 74 74 76 77 77 78 78 78 78 78 77 77 77 77 77 77 77 77 76 76 75 74 73 74 74 75 76 77 75 64 66 54 54 53 55
63 63 63 63 64 66 65 66 69 69 71 70 71 72 74 74 75 71 72 75 78 75 75 78 74 78 76 76 76 76 75 77 77 78 78 79 78 78 78 78 77 78 78 78 77 77 77 77 76 75 74 72 73 73 73 77 77 69 62 60 53 54 54
62 63 63 63 63 66 65 65 68 69 70 70 71 72 73 73 75 74 75 76 78 77 78 78 77 78 77 76 76 77 76 77 78 78 78 78 78 78 78 78 77 77 78 78 77 77 76 77 76 76 75 74 74 74 76 76 78 78 68 58 54 53 53
63 63 63 62 64 64 65 66 67 67 68 69 69 70 72 72 71 73 73 74 75 76 78 78 77 77 78 77 77 78 77 77 76 78 77 77 77 78 78 77 76 76 78 77 76 76 76 76 75 75 75 75 75 75 74 76 77 76 75 62 57 55 54
65 64 64 64 64 65 65 66 66 66 67 68 69 69 70 71 71 72 73 74 73 74 76 77 77 77 77 78 79 78 78 76 72 72 74 76 75 75 77 77 76 75 76 76 75 75 76 75 75 74 74 74 74 74 75 74 75 76 76 75 67 63 61
65 65 65 66 66 65 66 65 66 66 68 68 68 69 69 69 70 71 72 72 73 74 74 75 75 75 76 75 77 78 78 78 76 74 71 72 73 72 73 75 76 76 77 75 75 75 74 74 73 73 72 72 72 73 74 74 74 76 70 70 72 71 68
64 64 65 66 66 66 67 67 66 67 68 68 68 69 70 70 71 71 72 72 73 76 75 76 74 76 74 74 76 77 78 76 74 73 76 75 75 77 78 75 75 76 77 76 76 75 72 72 73 73 73 72 74 73 72 74 72 64 56 63 56 63 69
64 65 65 67 67 67 66 66 67 68 68 68 68 68 68 68 69 70 69 71 73 73 74 75 76 74 73 73 72 69 72 72 70 72 72 73 76 76 76 66 59 75 75 71 63 59 60 63 71 72 73 73 73 73 71 69 64 49 46 46 46 47 48
65 66 66 66 67 68 68 69 68 67 67 68 68 68 68 68 67 69 69 72 73 72 73 73 75 75 72 72 70 70 73 71 72 74 77 77 73 76 74 72 69 52 57 62 61 55 50 50 51 53 58 70 70 64 52 51 46 44 44 45 45 45 45
65 65 66 66 66 67 67 67 68 69 68 68 68 68 68 67 68 69 68 70 70 72 73 73 74 72 72 72 72 73 73 73 73 74 75 75 75 76 76 76 75 71 57 50 52 50 48 48 48 49 50 53 58 64 66 55 47 45 45 45 45 44 45